Dewpoint
53 53 54 55 55 55 55 54 53 53 52 49 49 47 47 47 48 46 46 47 50 53 53 53 55 55 55 54 55 56 56 60 58 60 62 63 63 62 63 64 63 62 60
52 53 54 55 55 54 54 53 52 50 49 48 47 47 46 46 46 46 46 48 50 49 50 49 49 52 54 55 54 53 52 58 57 58 60 62 63 62 62 62 62 62 60
52 54 53 54 54 53 52 51 50 49 48 47 47 46 46 46 46 46 48 47 46 46 45 46 46 48 51 54 53 51 50 53 55 57 57 62 62 63 61 61 61 61 60
53 53 53 53 52 51 50 49 49 48 46 46 46 47 47 47 46 47 46 45 46 46 46 46 45 45 47 51 50 52 51 51 51 52 53 59 61 61 61 60 59 60 59
52 53 54 52 50 49 48 47 47 46 46 47 46 46 46 46 42 42 44 44 44 44 45 45 45 46 49 51 51 51 51 51 51 48 49 54 58 58 58 58 58 59 59
52 52 51 49 47 47 46 46 44 46 46 46 44 44 44 44 44 43 42 42 42 42 42 43 44 47 47 49 51 52 53 51 50 49 47 49 50 57 59 58 57 56 55
49 48 47 46 45 44 44 43 43 44 45 43 43 43 43 43 43 42 42 40 42 42 42 43 44 45 48 47 49 51 50 51 53 52 51 50 51 54 58 58 57 57 57
47 45 44 43 42 42 42 43 45 45 43 42 41 41 42 43 43 42 41 40 39 40 41 43 42 44 46 47 47 46 46 47 49 52 53 51 49 52 58 58 59 58 58
43 40 40 41 42 43 42 42 43 43 41 40 40 40 40 40 41 41 41 40 38 39 39 43 44 43 43 43 45 45 45 44 46 46 46 45 45 46 47 56 55 56 57
39 40 41 40 40 39 40 41 42 41 40 40 38 38 39 37 39 41 42 41 40 37 37 37 41 38 39 40 39 41 42 42 41 41 41 41 43 45 48 53 53 54 56
40 39 40 39 38 39 40 39 38 38 37 38 37 36 37 37 38 42 43 40 39 38 37 37 38 40 39 38 39 36 38 40 40 39 40 40 41 43 47 50 54 56 56
40 40 40 39 38 38 38 38 38 35 33 33 34 35 34 35 38 39 42 41 40 38 37 37 38 39 39 40 40 38 38 39 37 37 37 38 39 41 45 48 56 58 59
38 38 37 37 38 38 37 37 35 34 33 32 33 33 34 34 36 38 39 40 41 39 37 39 40 39 39 38 38 38 39 38 38 37 37 37 40 43 45 47 50 55 58
35 36 37 37 36 36 36 35 33 33 33 32 32 33 33 34 36 38 38 38 38 38 40 40 40 39 39 38 37 38 38 38 38 38 39 39 40 42 42 46 48 51 54
37 36 35 35 35 34 34 36 36 36 36 35 35 35 35 35 35 37 36 35 35 35 37 37 36 36 35 34 35 35 37 40 40 39 39 40 40 40 41 43 47 50 51
35 35 37 37 37 37 37 37 38 37 38 37 36 36 35 36 36 37 37 37 37 37 37 36 35 35 34 34 35 35 35 37 39 40 40 39 39 40 41 43 45 47 50
37 37 37 37 36 36 36 36 35 36 37 37 36 36 36 37 37 37 37 36 36 36 36 36 35 36 35 35 35 34 34 35 37 38 39 40 40 40 40 42 45 47 50
37 38 37 36 36 36 36 36 36 35 35 36 37 36 36 36 36 36 36 36 36 36 36 36 35 35 35 35 36 35 36 36 36 37 38 38 40 40 41 43 45 48 48
36 37 37 37 37 37 36 35 35 35 35 34 35 35 36 36 36 36 36 37 36 37 37 36 36 36 36 36 36 36 36 36 37 38 39 39 40 40 41 43 45 41 44
37 37 37 38 35 35 35 34 33 33 33 34 34 34 35 35 34 34 34 35 35 35 36 37 36 36 36 35 36 37 36 37 37 38 38 38 39 39 40 41 44 46 49
38 38 35 38 35 35 35 33 33 34 33 33 33 35 33 32 32 33 34 34 36 36 35 35 35 36 37 37 36 36 37 37 37 37 38 39 40 40 41 42 43 47 49
38 39 39 38 37 36 35 34 34 33 33 32 33 34 33 33 33 34 34 34 34 35 38 37 36 36 36 35 35 36 36 36 36 37 38 39 40 40 41 41 44 47 49
36 36 36 35 36 35 35 34 34 34 33 33 33 32 32 32 32 33 33 35 34 35 37 37 37 36 36 37 36 36 35 37 38 39 40 40 40 41 41 42 44 47 48
38 35 35 34 35 35 35 34 34 33 33 32 32 32 31 31 31 32 33 34 35 35 36 37 37 36 36 36 36 36 36 36 38 40 41 42 42 40 42 43 44 47 48
37 37 34 34 34 34 34 34 34 33 33 32 32 32 31 31 31 31 32 33 34 34 35 35 36 37 37 36 35 35 35 33 36 36 42 42 42 41 41 45 46 47 49
36 35 34 34 33 33 33 33 33 33 32 32 32 31 31 31 31 31 31 32 33 33 34 34 34 35 37 36 36 34 33 33 35 34 40 42 41 42 43 45 46 47 47
Lifted_Index
4 4 4 4 4 4 5 5 6 7 8 9 9 10 10 10 10 11 10 9 8 7 6 6 6 6 6 6 5 4 2 1 1 -0 -1 -2 -3 -4 -3 -3 -2 -1 -1
4 3 4 4 4 4 5 5 6 7 8 9 10 10 10 11 11 11 10 9 9 8 8 8 7 7 6 6 6 5 4 3 2 1 -0 -2 -3 -3 -3 -2 -2 -1 -1
3 3 3 3 4 4 5 5 7 8 8 9 10 10 11 11 11 10 10 9 9 9 10 10 10 9 8 7 7 6 6 5 4 3 1 -1 -2 -3 -3 -2 -1 -1 -1
3 3 3 3 4 4 5 6 7 8 8 9 10 10 11 11 10 10 10 10 10 10 11 11 12 11 10 8 7 7 6 6 6 5 4 1 -1 -2 -2 -2 -1 -1 -1
2 3 3 4 4 4 5 6 7 8 9 10 10 11 11 11 10 10 10 10 10 11 11 11 11 11 10 9 8 7 7 6 6 6 5 4 1 -0 -1 -1 -1 -1 -1
2 3 3 4 4 5 6 7 8 9 9 10 10 11 11 11 10 10 10 10 11 11 11 11 11 10 10 9 9 8 7 6 6 5 5 5 4 1 -0 -1 -1 -1 -1
2 2 3 4 5 6 7 8 9 9 10 10 10 10 11 11 10 10 10 11 11 12 12 11 10 10 9 9 9 8 7 6 6 5 5 5 5 3 1 0 -0 -0 -0
1 2 3 4 5 6 7 8 9 10 10 10 10 10 11 11 11 11 11 11 12 12 12 11 10 10 9 9 9 9 8 8 7 6 5 5 5 4 2 1 1 1 0
2 2 3 4 5 6 7 9 10 10 10 10 10 11 11 12 12 12 12 12 11 11 11 11 11 10 10 10 10 9 9 9 9 8 7 6 6 5 4 3 3 2 2
3 3 4 5 6 7 9 10 11 11 11 11 11 12 12 12 12 12 12 11 11 11 11 11 11 11 11 11 10 10 11 11 10 10 9 8 7 6 5 5 4 4 3
4 5 6 7 8 10 11 11 11 12 12 12 12 12 12 12 12 12 12 12 11 11 11 12 12 11 11 11 11 12 12 12 11 11 10 9 9 7 6 5 4 4 3
7 7 9 10 10 11 11 12 12 12 13 13 13 12 12 12 12 12 12 12 12 12 12 12 12 12 12 12 12 13 13 13 12 11 10 10 10 8 6 5 4 4 3
10 10 11 11 11 11 11 12 12 12 12 12 12 12 12 12 12 12 12 12 12 12 12 12 12 12 12 12 13 13 13 13 12 11 10 10 10 10 8 6 5 4 3
11 11 11 12 11 11 12 12 12 12 12 12 12 12 12 12 12 12 13 13 12 12 12 12 12 12 12 12 13 13 13 13 12 11 11 11 11 11 9 8 6 5 5
11 11 11 12 12 12 12 12 12 12 12 12 12 12 12 12 12 12 13 13 13 13 13 12 12 12 12 12 12 13 13 13 13 12 11 11 11 11 10 9 7 6 6
11 11 11 12 12 11 11 11 11 11 11 12 12 11 11 11 11 12 13 14 14 14 13 11 11 11 11 12 12 12 13 13 13 13 12 11 11 11 10 10 8 7 6
11 11 11 11 11 11 11 10 10 10 10 10 11 11 11 10 11 11 13 14 14 14 13 11 11 11 12 12 13 12 13 13 13 13 13 12 11 11 10 10 8 7 6
11 11 11 11 11 10 10 10 10 9 9 9 10 10 11 11 11 12 12 13 13 13 13 12 11 12 13 13 14 13 13 13 14 13 13 13 12 11 11 10 8 7 6
11 11 11 11 11 11 10 10 10 9 9 9 9 10 11 12 12 12 12 12 13 13 13 12 13 13 14 14 14 14 14 14 14 14 13 13 13 12 11 10 8 7 6
11 11 11 11 11 11 10 10 10 9 9 9 10 11 12 12 11 12 12 13 13 13 14 14 14 15 15 15 15 14 14 14 14 14 13 13 13 12 12 11 9 7 6
11 11 11 11 11 11 10 10 10 9 9 9 10 11 12 12 11 12 12 13 14 15 15 16 16 16 16 16 16 15 15 14 14 14 14 13 13 12 12 11 10 8 7
12 12 12 12 11 11 11 10 10 10 9 9 9 11 12 11 11 12 13 14 15 16 16 16 17 17 17 17 17 16 15 15 14 14 14 14 13 12 12 11 10 8 7
12 12 12 12 12 11 11 10 10 10 9 9 9 9 10 10 11 12 13 15 16 17 17 17 17 17 18 18 18 17 16 15 15 15 14 14 13 12 11 10 9 8 7
12 12 13 13 12 11 11 11 10 10 10 9 9 9 9 10 11 12 13 15 16 16 17 17 17 17 18 18 18 18 17 16 16 15 15 14 13 12 11 9 8 7 6
11 12 13 13 13 12 11 11 10 10 10 10 9 9 9 10 11 12 13 14 15 16 16 16 17 17 18 18 18 18 17 17 16 16 15 14 13 12 10 9 7 6 6
11 12 13 13 13 12 11 11 11 10 10 10 10 9 10 10 11 11 13 14 14 15 15 16 17 17 17 18 18 18 17 17 16 16 15 14 13 12 10 8 7 6 6